[[{"header":{"parameterUnit":"m.s-1","parameterCategory":1,"la1":30.2991,"la2":30.254,"lo1":-89.0895,"lo2":-89.0444,"dx":0.0017,"dy":0.0017,"nx":28,"ny":28,"refTime":"2022-11-13T15:00:00:Z","depth":0,"parameterNumber":2,"parameterNumberName":"U-component_of_WINDS"},"data":[0,0,0,0,0,0,0,0,0,0,0,0,0,0,0,0,0,0,0,0,0,0,0,0,0,0,0,0,0,0,0,0,0,0,0,0,0,0,0,0,0,0,0,0,0,0,0,0,0,0,0,0,0,0,0,0,0,0,-3.8582,-3.8584,0,-3.8802,-3.8804,-3.8807,-3.8861,-3.886,-3.8858,-3.8857,-3.9092,-3.91,-3.9107,0,0,0,0,0,0,0,0,0,0,0,0,0,-3.8219,-3.8225,-3.8582,-3.8584,-3.8587,-3.8801,-3.8805,-3.8808,-3.8861,-3.886,-3.8858,-3.8856,-3.909,-3.9099,-3.9108,0,0,0,0,0,0,0,0,0,0,0,0,0,-3.8401,-3.8227,-3.8581,-3.864,-3.8647,-3.8801,-3.8805,-3.8808,-3.8862,-3.886,-3.8857,-3.8855,-3.9087,-3.9098,-3.9109,-3.9224,0,0,-3.9144,-3.9149,0,0,0,0,0,0,0,0,-3.8391,-3.8415,-3.8628,-3.8636,-3.8644,-3.8802,-3.8763,-3.8948,-3.8862,-3.8781,-3.8857,-3.8854,-3.8998,-3.9017,-3.9063,-3.9235,-3.9245,-3.9145,-3.9152,-3.9157,-3.916,0,0,0,0,0,0,0,-3.8378,-3.8406,-3.8669,-3.8631,-3.8641,-3.8658,-3.8682,-3.8798,-3.8899,-3.8787,-3.8792,-3.8817,-3.9002,-3.9052,-3.9069,-3.9248,-3.9145,-3.9155,-3.9162,-3.9167,-3.9527,-3.953,0,0,0,0,0,0,-3.8354,-3.8395,-3.8662,-3.8676,-3.8509,-3.8667,-3.8693,-3.8754,-3.8898,-3.8918,-3.8818,-3.8818,-3.9033,-3.9056,-3.9078,-3.922,-3.9157,-3.9168,-3.9174,-3.9524,-3.9528,-3.953,0,0,0,0,0,0,-3.8346,-3.8377,-3.8653,-3.8537,-3.8573,-3.8675,-3.8743,-3.8759,-3.8808,-3.8921,-3.8941,-3.885,-3.9033,-3.9061,-3.9187,-3.9229,-3.9173,-3.9183,-3.9521,-3.9525,-3.9529,-3.9507,0,0,0,0,0,0,-3.8335,-3.8374,-3.8416,-3.8537,-3.8579,-3.8755,-3.8745,-3.8765,-3.8827,-3.8829,-3.8956,-3.8975,-3.9033,-3.9169,-3.9198,-3.9244,-3.9192,-3.9518,-3.9523,-3.9528,-3.9504,-3.951,-3.9514,0,0,0,0,0,-3.8322,-3.8403,-3.8417,-3.8449,-3.8632,-3.8757,-3.8781,-3.8844,-3.883,-3.8874,-3.8947,-3.8971,-3.9221,-3.9181,-3.9214,-3.9265,-3.9515,-3.9521,-3.9527,-3.9502,-3.9509,-3.9514,0,0,0,0,0,0,-3.8287,-3.842,-3.8437,-3.8559,-3.8646,-3.8766,-3.8823,-3.8849,-3.8944,-3.8942,-3.902,-3.9048,-3.9168,-3.923,-3.9184,-3.9384,-3.9368,-3.9381,-3.9338,-3.9345,-3.935,-3.9331,-3.9202,0,0,0,0,0,-3.8293,-3.838,-3.8493,-3.859,-3.8632,-3.872,-3.8777,-3.8817,-3.8912,-3.895,-3.9032,-3.9126,-3.9226,-3.929,-3.9388,-3.9515,-3.9544,-3.9567,-3.9571,-3.9575,-3.9584,-3.9657,-3.9668,-3.955,-3.955,-3.955,0,0,-3.8307,-3.8391,-3.8441,-3.8584,-3.8656,-3.8747,-3.8751,-3.8847,-3.8916,-3.8966,-3.9087,-3.9151,-3.9262,-3.9388,-3.9448,-3.9443,-3.9624,-3.9583,-3.9585,-3.9593,-3.9664,-3.9675,-3.9685,-3.9555,-3.9554,-3.9553,0,0,-3.8378,-3.845,-3.8537,-3.8609,-3.8717,-3.8776,-3.8797,-3.8914,-3.8957,-3.908,-3.9119,-3.9205,-3.9375,-3.9452,-3.9513,-3.9616,-3.9641,-3.9647,-3.9672,-3.9742,-3.9751,-3.976,-3.9795,-3.9807,-3.9657,-3.9657,-3.9657,0,-3.8382,-3.8517,-3.858,-3.8674,-3.8736,-3.8784,-3.8875,-3.8943,-3.9079,-3.9123,-3.9116,-3.933,-3.9408,-3.9553,-3.9578,-3.9627,-3.9655,-3.9631,-3.9744,-3.9753,-3.9762,-3.9797,-3.9811,-3.9656,-3.9656,-3.9656,-3.9656,0,-3.8517,-3.861,-3.8669,-3.8794,-3.8865,-3.8957,-3.9037,-3.9102,-3.9138,-3.9198,-3.9324,-3.9419,-3.9537,-3.9576,-3.9613,-3.9727,-3.9721,-3.9728,-3.9713,-3.9772,-3.9806,-3.982,-3.9656,-3.9656,-3.9656,-3.9656,0,0,-3.8569,-3.8729,-3.8749,-3.8807,-3.8931,-3.9006,-3.9103,-3.9215,-3.9268,-3.9362,-3.9445,-3.9589,-3.9597,-3.9666,-3.9714,-3.9775,-3.985,-3.9776,-3.978,-3.9784,-3.9981,-3.9972,-3.9986,-3.9869,-3.9872,-3.9874,-3.9971,0,-3.8653,-3.882,-3.8881,-3.9021,-3.9109,-3.9156,-3.9241,-3.9328,-3.9388,-3.9474,-3.9543,-3.9643,-3.9646,-3.9688,-3.9751,-3.9826,-3.989,-3.9821,-3.9949,-3.9952,-3.9915,-4.0005,-3.9996,-4.0082,-3.9985,-3.9987,-3.9989,0,-3.8773,-3.8864,-3.901,-3.9123,-3.9163,-3.9236,-3.9344,-3.9426,-3.9528,-3.9568,-3.9645,-3.9689,-3.9795,-3.9776,-3.9925,-3.9876,-3.9934,-3.9979,-3.9984,-3.9996,-3.9971,-4.0017,-4.0112,-4.0124,-4.0011,-4.0009,-4.0008,0,-3.8793,-3.8954,-3.9062,-3.9111,-3.9246,-3.9296,-3.9356,-3.9455,-3.9519,-3.9616,-3.9658,-3.9768,-3.9827,-3.9913,-3.9986,-3.9966,-4.0128,-4.0116,-4.0166,-4.0164,-4.0195,-4.0191,-4.0297,-4.0236,-4.0236,-4.0235,-4.0235,0,-3.888,-3.8967,-3.9072,-3.9139,-3.9239,-3.9311,-3.941,-3.9474,-3.9562,-3.9644,-3.9695,-3.9772,-3.9865,-3.9955,-4.0014,-4.0128,-4.0156,-4.0193,-4.0207,-4.0186,-4.0181,-4.0222,-4.0217,-4.0239,-4.0238,-4.0237,-4.0237,0,-3.8918,-3.8992,-3.9113,-3.923,-3.9262,-3.9331,-3.9434,-3.9503,-3.9566,-3.9669,-3.9698,-3.9798,-3.9907,-3.9989,-4.0132,-4.0172,-4.0293,-4.0309,-4.0256,-4.0263,-4.0307,-4.0301,-4.0442,-4.0464,-4.0389,-4.0389,-4.039,0,-3.8966,-3.9034,-3.9159,-3.9215,-3.9273,-3.9365,-3.9429,-3.9505,-3.9571,-3.9692,-3.9746,-3.9858,-3.9951,-4.0124,-4.0212,-4.0322,-4.034,-4.0382,-4.0357,-4.0334,-4.0339,-4.0332,-4.034,-4.0384,-4.0384,-4.0385,-4.0385,0,-3.9044,-3.9078,-3.9166,-3.9269,-3.9343,-3.9429,-3.9516,-3.9561,-3.9652,-3.9725,-3.9834,-3.9906,-4.005,-4.0161,-4.028,-4.0347,-4.0382,-4.0393,-4.041,-4.0388,-4.0354,-4.0371,-4.0263,-4.0388,-4.0388,-4.0388,-4.0388,-4.0387,-3.9089,-3.9151,-3.9247,-3.9345,-3.9418,-3.9498,-3.9567,-3.9638,-3.9729,-3.9849,-3.989,-4.0004,-4.0107,-4.027,-4.0337,-4.043,-4.043,-4.0455,-4.0462,-4.0466,-4.0463,-4.0341,-4.0453,-4.0453,-4.0453,-4.0453,-4.0453,0,-3.9168,-3.9232,-3.9321,-3.9439,-3.9517,-3.954,-3.9638,-3.9703,-3.98,-3.9891,-3.9981,-4.0108,-4.0217,-4.0314,-4.0428,-4.0483,-4.0503,-4.0511,-4.0506,-4.0521,-4.0457,-4.043,-4.0493,-4.0493,-4.0493,-4.0493,-4.0493,-4.0493,-3.9217,-3.9323,-3.9368,-3.9513,-3.9578,-3.9686,-3.974,-3.9815,-3.9888,-4.0026,-4.0114,-4.0176,-4.0271,-4.0392,-4.0494,-4.052,-4.0559,-4.0562,-4.0593,-4.0531,-4.0525,-4.052,-4.0495,-4.0571,-4.0571,-4.0649,-4.0649,-4.065]},{"header":{"parameterUnit":"m.s-1","parameterCategory":1,"la1":30.2991,"la2":30.254,"lo1":-89.0895,"lo2":-89.0444,"dx":0.0017,"dy":0.0017,"nx":28,"ny":28,"refTime":"2022-11-13T15:00:00:Z","depth":0,"parameterNumber":3,"parameterNumberName":"V-component_of_WINDS"},"data":[0,0,0,0,0,0,0,0,0,0,0,0,0,0,0,0,0,0,0,0,0,0,0,0,0,0,0,0,0,0,0,0,0,0,0,0,0,0,0,0,0,0,0,0,0,0,0,0,0,0,0,0,0,0,0,0,0,0,6.0672,6.0675,0,6.098,6.0984,6.0987,6.1004,6.1,6.0997,6.0993,6.1305,6.1316,6.1327,0,0,0,0,0,0,0,0,0,0,0,0,0,6.0093,6.0103,6.0671,6.0675,6.0679,6.098,6.0984,6.0988,6.1004,6.1,6.0996,6.0992,6.1301,6.1315,6.1328,0,0,0,0,0,0,0,0,0,0,0,0,0,6.0367,6.0107,6.0671,6.0724,6.0732,6.0979,6.0984,6.0989,6.1005,6.1,6.0995,6.099,6.1296,6.1313,6.133,6.1544,0,0,6.1384,6.1391,0,0,0,0,0,0,0,0,6.0351,6.0388,6.0712,6.0721,6.073,6.0948,6.0894,6.1175,6.1007,6.0901,6.0993,6.0987,6.119,6.1216,6.1285,6.1559,6.1572,6.1385,6.1396,6.1403,6.1408,0,0,0,0,0,0,0,6.0332,6.0375,6.0793,6.0717,6.0728,6.0731,6.0764,6.0947,6.1072,6.091,6.0912,6.0949,6.1194,6.1268,6.1293,6.1577,6.1385,6.14,6.1411,6.1418,6.2043,6.2049,0,0,0,0,0,0,6.0304,6.0359,6.0784,6.0803,6.0524,6.0746,6.0783,6.0883,6.107,6.1093,6.0953,6.0948,6.1241,6.1272,6.1304,6.1568,6.1403,6.1419,6.1429,6.2037,6.2044,6.2051,0,0,0,0,0,0,6.0291,6.0341,6.0771,6.0582,6.0637,6.0761,6.0874,6.0892,6.0967,6.1102,6.1124,6.1007,6.1238,6.1279,6.1485,6.1579,6.1427,6.1443,6.2029,6.2039,6.2047,6.2097,0,0,0,0,0,0,6.0274,6.0337,6.042,6.0583,6.0647,6.0949,6.088,6.0902,6.0998,6.0995,6.1158,6.118,6.1237,6.1459,6.1502,6.16,6.1457,6.2022,6.2034,6.2045,6.2088,6.2107,6.2124,0,0,0,0,0,6.0254,6.0421,6.0424,6.0476,6.0754,6.0954,6.099,6.1054,6.1005,6.109,6.1176,6.1175,6.1561,6.148,6.1529,6.1633,6.2016,6.203,6.2044,6.208,6.2103,6.2123,0,0,0,0,0,0,6.0264,6.0443,6.0449,6.0674,6.0799,6.0957,6.1065,6.1077,6.1217,6.1208,6.1279,6.1316,6.152,6.1597,6.1503,6.1851,6.1783,6.1807,6.1794,6.1817,6.1835,6.1812,6.1471,0,0,0,0,0,6.0292,6.0441,6.0589,6.0774,6.0836,6.094,6.1029,6.1068,6.1199,6.1252,6.1354,6.148,6.163,6.1728,6.1873,6.2098,6.2135,6.2194,6.2212,6.2226,6.2247,6.2373,6.2402,6.2096,6.2096,6.2096,0,0,6.0353,6.0469,6.0559,6.0779,6.088,6.1032,6.0984,6.1147,6.126,6.1276,6.1478,6.1557,6.1702,6.192,6.202,6.199,6.2339,6.2244,6.2254,6.2267,6.239,6.2419,6.2445,6.2106,6.2104,6.2103,0,0,6.0541,6.0644,6.0809,6.0912,6.1067,6.1135,6.1174,6.1331,6.1385,6.1588,6.1604,6.1739,6.1995,6.2099,6.2186,6.2413,6.2418,6.2458,6.2552,6.2675,6.2699,6.272,6.2803,6.2832,6.2478,6.2478,6.2478,0,6.0596,6.0828,6.0892,6.1056,6.1153,6.1175,6.1344,6.1439,6.1633,6.1698,6.1661,6.1985,6.2085,6.2327,6.2383,6.2452,6.2499,6.2441,6.269,6.2713,6.2734,6.2814,6.2844,6.2482,6.2482,6.2481,6.2481,0,6.0888,6.1048,6.1163,6.1352,6.1461,6.1625,6.1714,6.1817,6.1845,6.1917,6.2124,6.2244,6.2415,6.2475,6.2504,6.2722,6.2699,6.2675,6.2609,6.2766,6.2842,6.2873,6.2488,6.2487,6.2485,6.2484,0,0,6.1093,6.1316,6.1357,6.1443,6.1615,6.174,6.1905,6.2074,6.216,6.2292,6.2433,6.265,6.263,6.2728,6.2768,6.2875,6.305,6.2839,6.2843,6.2876,6.33,6.3318,6.3352,6.3053,6.3059,6.3064,6.3288,0,6.1302,6.1599,6.1662,6.1918,6.2067,6.209,6.2234,6.2355,6.2426,6.2561,6.2638,6.2792,6.2753,6.2813,6.292,6.3006,6.3136,6.299,6.3185,6.3191,6.315,6.3392,6.3412,6.3617,6.3318,6.3323,6.3327,0,6.1586,6.1727,6.1998,6.2151,6.2216,6.2344,6.2505,6.2634,6.2771,6.2815,6.2925,6.2954,6.3126,6.305,6.3288,6.3188,6.3271,6.3325,6.3334,6.3357,6.327,6.3422,6.3684,6.3716,6.3374,6.337,6.3367,0,6.171,6.1967,6.2163,6.2236,6.2419,6.2509,6.2589,6.2721,6.2819,6.2958,6.3022,6.3178,6.3265,6.3385,6.3455,6.3393,6.3689,6.3618,6.3731,6.3729,6.3794,6.3789,6.4075,6.3843,6.3843,6.3842,6.3842,0,6.1938,6.2103,6.2222,6.2343,6.2528,6.2599,6.278,6.286,6.2977,6.3113,6.3141,6.3268,6.3352,6.3491,6.3547,6.3737,6.3774,6.3815,6.3828,6.3814,6.3809,6.3871,6.3859,6.3851,6.3849,6.3847,6.3846,0,6.2109,6.2195,6.2411,6.2567,6.261,6.274,6.2873,6.2991,6.3062,6.3234,6.3278,6.3389,6.3554,6.3636,6.384,6.3877,6.4092,6.4095,6.4047,6.4053,6.4162,6.4151,6.4499,6.4549,6.4282,6.4284,6.4286,0,6.2251,6.2379,6.2549,6.2643,6.2725,6.2876,6.2976,6.3049,6.3152,6.3318,6.3416,6.3582,6.372,6.3981,6.408,6.4236,6.4245,6.4356,6.4269,6.4251,6.4249,6.4242,6.4256,6.4372,6.4374,6.4377,6.4378,0,6.2492,6.2529,6.2673,6.2833,6.2952,6.308,6.3207,6.3282,6.3375,6.3489,6.3659,6.3765,6.3975,6.414,6.4304,6.4385,6.4399,6.4405,6.444,6.4428,6.4395,6.4417,6.4092,6.4397,6.4395,6.4394,6.4393,6.4392,6.2655,6.2771,6.2909,6.3068,6.3171,6.3289,6.3408,6.3494,6.3637,6.3815,6.3848,6.4029,6.4162,6.4384,6.447,6.4612,6.4588,6.4637,6.4651,6.4662,6.4669,6.4371,6.4642,6.4641,6.4641,6.464,6.464,0,6.2901,6.299,6.3136,6.3314,6.3439,6.344,6.3581,6.3686,6.3844,6.3968,6.4103,6.4298,6.4458,6.457,6.4732,6.4824,6.4834,6.4865,6.486,6.4879,6.468,6.4635,6.4854,6.4854,6.4854,6.4854,6.4854,6.4854,6.3043,6.324,6.3292,6.3539,6.3627,6.3806,6.3886,6.3994,6.4094,6.4311,6.4445,6.4516,6.4636,6.4807,6.4954,6.4983,6.5042,6.5073,6.5102,6.4915,6.4893,6.4871,6.4829,6.5085,6.5085,6.5289,6.5291,6.5292]}]]